Location: Calmejanne
(44.7523°N, 1.9418°E)
Time: 07:24:43
(UTC+00:00)

Cosmos 1825 Rocket - Pass Details

Date: 14 May 2026
Orbit: 598 x 622 km, 82.5° (Epoch: 5 June)

Event Time Altitude Azimuth Distance (km) Brightness Sun altitude
Rises 21:52:01 0° 350° (N) 2,871 8.2 -21.1°
Reaches altitude 10° 21:54:14 10° 349° (N) 1,966 7.2 -21.3°
Maximum altitude 21:58:35 81° 263° (W) 624 3.5 -21.7°
Enters shadow 21:59:18 61° 190° (S) 696 3.5 -21.7°
